• în România
  • Lista ţărilor
  • Pe 7 zile
  • Temperatura apei
  • Hartă satelitară
  • Meteo pe hartă
  • Widget-uri
  • user-avatar
    Intrare

    Meteo pe oră la Veszprem

    Astăzi, 16 Octombrie, Marţi

    Timp Temperatura Precipitaţii Vânt Presiune Umiditate
    00:00 +13°C° 0 mm 2 m/s 744 mmHg 45%
    01:00 +13°C° 0 mm 2 m/s 744 mmHg 48%
    02:00 +12°C° 0 mm 2 m/s 744 mmHg 49%
    03:00 +12°C° 0 mm 2 m/s 744 mmHg 51%
    04:00 +12°C° 0 mm 2 m/s 743 mmHg 53%
    05:00 +12°C° 0 mm 2 m/s 744 mmHg 53%
    06:00 +12°C° 0 mm 2 m/s 744 mmHg 54%
    07:00 +12°C° 0 mm 2 m/s 744 mmHg 50%
    08:00 +14°C° 0 mm 2 m/s 744 mmHg 46%
    09:00 +16°C° 0 mm 2 m/s 744 mmHg 42%
    10:00 +18°C° 0 mm 2 m/s 744 mmHg 38%
    11:00 +19°C° 0 mm 3 m/s 744 mmHg 36%
    12:00 +20°C° 0 mm 3 m/s 744 mmHg 34%
    13:00 +21°C° 0 mm 3 m/s 744 mmHg 33%
    14:00 +21°C° 0 mm 2 m/s 744 mmHg 34%
    15:00 +20°C° 0 mm 2 m/s 744 mmHg 36%
    16:00 +20°C° 0 mm 2 m/s 743 mmHg 38%
    17:00 +20°C° 0 mm 1 m/s 743 mmHg 40%
    18:00 +19°C° 0 mm 1 m/s 743 mmHg 43%
    19:00 +16°C° 0 mm 1 m/s 743 mmHg 45%
    20:00 +16°C° 0 mm 1 m/s 744 mmHg 45%
    21:00 +16°C° 0 mm 1 m/s 744 mmHg 46%
    22:00 +16°C° 0 mm 1 m/s 744 mmHg 46%
    23:00 +15°C° 0 mm 1 m/s 744 mmHg 47%

    Mâine, 17 Octombrie, Miercuri

    Timp Temperatura Precipitaţii Vânt Presiune Umiditate
    00:00 +15°C° 0 mm 1 m/s 744 mmHg 47%
    01:00 +15°C° 0 mm 1 m/s 743 mmHg 48%
    02:00 +15°C° 0 mm 1 m/s 743 mmHg 48%
    03:00 +14°C° 0 mm 2 m/s 743 mmHg 47%
    04:00 +14°C° 0 mm 2 m/s 743 mmHg 47%
    05:00 +14°C° 0 mm 2 m/s 743 mmHg 47%
    06:00 +14°C° 0 mm 2 m/s 743 mmHg 47%
    07:00 +13°C° 0 mm 2 m/s 743 mmHg 47%
    08:00 +15°C° 0 mm 2 m/s 743 mmHg 42%
    09:00 +17°C° 0 mm 2 m/s 744 mmHg 37%
    10:00 +19°C° 0 mm 3 m/s 744 mmHg 32%
    11:00 +20°C° 0 mm 3 m/s 743 mmHg 30%
    12:00 +21°C° 0 mm 3 m/s 743 mmHg 28%
    13:00 +22°C° 0 mm 3 m/s 743 mmHg 26%
    14:00 +23°C° 0 mm 2 m/s 743 mmHg 27%
    15:00 +23°C° 0 mm 2 m/s 742 mmHg 29%
    16:00 +22°C° 0 mm 1 m/s 742 mmHg 30%
    17:00 +20°C° 0 mm 2 m/s 742 mmHg 32%
    18:00 +18°C° 0 mm 2 m/s 742 mmHg 34%
    19:00 +17°C° 0 mm 2 m/s 742 mmHg 36%
    20:00 +16°C° 0 mm 2 m/s 742 mmHg 37%
    21:00 +16°C° 0 mm 2 m/s 742 mmHg 38%
    22:00 +15°C° 0 mm 2 m/s 742 mmHg 38%
    23:00 +15°C° 0 mm 1 m/s 742 mmHg 39%

    Poimâine, 18 Octombrie, Joi

    Timp Temperatura Precipitaţii Vânt Presiune Umiditate
    00:00 +14°C° 0 mm 1 m/s 742 mmHg 40%
    01:00 +14°C° 0 mm 1 m/s 742 mmHg 40%
    02:00 +14°C° 0 mm 1 m/s 742 mmHg 41%
    03:00 +13°C° 0 mm 1 m/s 742 mmHg 41%
    04:00 +13°C° 0 mm 1 m/s 742 mmHg 41%
    05:00 +13°C° 0 mm 1 m/s 742 mmHg 41%
    06:00 +13°C° 0 mm 1 m/s 742 mmHg 41%
    07:00 +13°C° 0 mm 1 m/s 742 mmHg 41%
    08:00 +15°C° 0 mm 1 m/s 742 mmHg 40%
    09:00 +16°C° 0 mm 2 m/s 742 mmHg 38%
    10:00 +18°C° 0 mm 2 m/s 742 mmHg 36%
    11:00 +19°C° 0 mm 2 m/s 742 mmHg 36%
    12:00 +20°C° 0 mm 2 m/s 742 mmHg 35%
    13:00 +21°C° 0 mm 2 m/s 742 mmHg 35%
    14:00 +21°C° 0 mm 2 m/s 741 mmHg 36%
    15:00 +21°C° 0 mm 2 m/s 741 mmHg 38%
    16:00 +21°C° 0 mm 1 m/s 741 mmHg 39%
    17:00 +19°C° 0 mm 2 m/s 741 mmHg 42%
    18:00 +17°C° 0 mm 2 m/s 741 mmHg 46%
    19:00 +16°C° 0 mm 2 m/s 742 mmHg 49%
    20:00 +15°C° 0 mm 1 m/s 742 mmHg 49%
    21:00 +15°C° 0 mm 1 m/s 742 mmHg 50%
    22:00 +14°C° 0 mm 1 m/s 742 mmHg 51%
    23:00 +14°C° 0 mm 1 m/s 742 mmHg 52%

    19 Octombrie, Vineri

    Timp Temperatura Precipitaţii Vânt Presiune Umiditate
    00:00 +14°C° 0 mm 1 m/s 742 mmHg 52%
    01:00 +14°C° 0 mm 1 m/s 742 mmHg 53%
    02:00 +13°C° 0 mm 1 m/s 742 mmHg 55%
    03:00 +13°C° 0 mm 1 m/s 742 mmHg 57%
    04:00 +13°C° 0 mm 1 m/s 742 mmHg 59%
    05:00 +12°C° 0 mm 1 m/s 742 mmHg 61%
    06:00 +12°C° 0 mm 1 m/s 743 mmHg 62%
    07:00 +12°C° 0 mm 1 m/s 743 mmHg 63%
    08:00 +14°C° 0 mm 2 m/s 743 mmHg 57%
    09:00 +16°C° 0 mm 2 m/s 743 mmHg 50%
    10:00 +19°C° 0 mm 2 m/s 744 mmHg 43%
    11:00 +20°C° 0 mm 2 m/s 744 mmHg 41%
    12:00 +21°C° 0 mm 3 m/s 743 mmHg 39%
    13:00 +22°C° 0 mm 3 m/s 743 mmHg 36%
    14:00 +21°C° 0 mm 3 m/s 743 mmHg 38%
    15:00 +21°C° 0 mm 2 m/s 743 mmHg 40%
    16:00 +20°C° 0 mm 2 m/s 743 mmHg 42%
    17:00 +18°C° 0 mm 2 m/s 743 mmHg 48%
    18:00 +17°C° 0 mm 2 m/s 743 mmHg 54%
    19:00 +15°C° 0 mm 2 m/s 743 mmHg 59%
    20:00 +15°C° 0 mm 2 m/s 744 mmHg 62%
    21:00 +14°C° 0 mm 2 m/s 744 mmHg 66%
    22:00 +13°C° 0 mm 2 m/s 744 mmHg 69%
    23:00 +13°C° 0 mm 2 m/s 744 mmHg 72%

    20 Octombrie, Sâmbătă

    Timp Temperatura Precipitaţii Vânt Presiune Umiditate
    00:00 +13°C° 0 mm 2 m/s 744 mmHg 75%
    01:00 +12°C° 0 mm 2 m/s 744 mmHg 77%
    02:00 +12°C° 0 mm 2 m/s 744 mmHg 80%
    03:00 +10°C° 0 mm 2 m/s 744 mmHg 83%
    04:00 +10°C° 0 mm 2 m/s 744 mmHg 85%
    05:00 +11°C° 0 mm 1 m/s 744 mmHg 86%
    06:00 +11°C° 0 mm 1 m/s 744 mmHg 86%
    07:00 +11°C° 0 mm 1 m/s 745 mmHg 87%
    08:00 +13°C° 0 mm 2 m/s 745 mmHg 77%
    09:00 +15°C° 0 mm 2 m/s 745 mmHg 68%
    10:00 +17°C° 0 mm 2 m/s 745 mmHg 58%
    11:00 +18°C° 0 mm 3 m/s 745 mmHg 53%
    12:00 +19°C° 0 mm 3 m/s 745 mmHg 49%
    13:00 +20°C° 0 mm 3 m/s 744 mmHg 44%
    14:00 +20°C° 0 mm 3 m/s 744 mmHg 46%
    15:00 +19°C° 0 mm 3 m/s 744 mmHg 48%
    16:00 +19°C° 0 mm 3 m/s 744 mmHg 49%
    17:00 +17°C° 0 mm 3 m/s 744 mmHg 56%
    18:00 +16°C° 0 mm 2 m/s 744 mmHg 62%
    19:00 +14°C° 0 mm 2 m/s 744 mmHg 68%
    20:00 +13°C° 0.1 mm 3 m/s 744 mmHg 70%
    21:00 +13°C° 0.1 mm 4 m/s 744 mmHg 72%
    22:00 +13°C° 0.1 mm 4 m/s 744 mmHg 74%
    23:00 +12°C° 0.4 mm 4 m/s 744 mmHg 75%

    21 Octombrie, Duminică

    Timp Temperatura Precipitaţii Vânt Presiune Umiditate
    00:00 +11°C° 0.4 mm 4 m/s 744 mmHg 76%
    01:00 +11°C° 0.4 mm 4 m/s 744 mmHg 77%
    02:00 +9°C° 0.2 mm 5 m/s 744 mmHg 73%
    03:00 +9°C° 0.2 mm 5 m/s 744 mmHg 70%
    04:00 +8°C° 0.2 mm 6 m/s 744 mmHg 67%
    05:00 +7°C° 0 mm 6 m/s 744 mmHg 67%
    06:00 +7°C° 0 mm 6 m/s 744 mmHg 67%
    07:00 +7°C° 0 mm 6 m/s 745 mmHg 67%
    08:00 +8°C° 0 mm 7 m/s 745 mmHg 63%
    09:00 +8°C° 0 mm 7 m/s 745 mmHg 58%
    10:00 +9°C° 0 mm 7 m/s 745 mmHg 53%
    11:00 +10°C° 0.1 mm 7 m/s 745 mmHg 51%
    12:00 +11°C° 0.1 mm 7 m/s 744 mmHg 48%
    13:00 +11°C° 0.1 mm 6 m/s 744 mmHg 45%
    14:00 +11°C° 0.1 mm 6 m/s 744 mmHg 47%
    15:00 +12°C° 0.1 mm 5 m/s 744 mmHg 48%
    16:00 +10°C° 0.1 mm 5 m/s 744 mmHg 49%
    17:00 +10°C° 0.1 mm 5 m/s 744 mmHg 52%
    18:00 +9°C° 0.1 mm 5 m/s 744 mmHg 56%
    19:00 +10°C° 0.1 mm 4 m/s 744 mmHg 60%
    20:00 +9°C° 0.1 mm 5 m/s 745 mmHg 61%
    21:00 +8°C° 0.1 mm 5 m/s 745 mmHg 61%
    22:00 +8°C° 0.1 mm 5 m/s 745 mmHg 62%
    23:00 +8°C° 0.1 mm 5 m/s 745 mmHg 63%
    Arată mai mult